GFSSW_925_thetae_276.txt.gz
Theta_e
306 307 307 309 309 309 310 310 310 305 302 302 303 306 309 309 313 312 308 309 309 308 313 315 314 313 313 312 313 309 310 309 313 312 314 313 314 312 311 311 312 311 310 309 309
307 306 306 307 307 307 309 310 309 304 301 302 303 306 309 312 314 312 308 309 308 310 312 313 314 313 311 313 311 310 309 313 314 313 314 313 312 313 313 312 312 312 308 309 308
308 307 305 303 302 304 306 309 309 304 301 301 303 307 309 314 315 312 309 309 310 311 312 313 313 313 313 313 313 311 312 313 315 314 313 313 314 313 313 313 310 311 308 307 306
309 308 306 304 303 301 303 307 307 305 302 300 302 307 309 314 321 311 309 310 312 313 313 312 314 314 314 314 312 314 313 314 314 313 314 314 312 312 311 311 308 307 308 307 305
310 309 307 306 305 303 303 304 304 303 302 300 303 308 314 312 313 310 309 310 313 313 313 313 313 313 314 312 312 313 313 314 313 313 313 313 312 311 311 309 307 307 307 305 305
312 310 309 308 307 305 305 304 304 302 300 300 303 311 316 312 310 310 310 311 314 314 314 313 313 313 313 314 315 313 313 314 313 313 313 314 312 311 310 307 307 308 305 304 305
313 312 310 309 308 307 306 306 305 302 300 301 304 312 312 310 310 309 310 313 314 314 313 314 314 314 314 314 313 313 315 314 313 313 313 310 309 311 309 307 308 308 304 304 303
314 313 312 310 309 308 307 306 306 302 301 302 305 312 309 311 310 310 311 312 313 313 313 313 313 313 314 313 313 314 313 313 314 313 312 308 309 309 307 307 308 307 304 304 304
317 315 313 311 310 308 308 307 303 302 302 304 311 311 307 309 309 309 311 312 313 314 312 312 312 312 313 312 312 312 311 314 314 312 313 311 308 308 307 307 308 307 304 304 303
319 317 315 313 310 309 308 305 302 303 307 309 310 306 306 309 309 310 310 311 312 313 314 314 309 311 311 311 311 317 314 312 311 312 311 311 312 310 309 307 307 306 304 303 304
320 319 317 314 311 310 309 304 307 308 308 306 307 307 309 309 309 310 311 311 312 312 314 313 310 307 311 312 314 312 312 312 311 312 311 311 311 310 308 308 307 306 305 303 302
320 321 318 315 312 309 308 305 304 303 298 304 306 308 309 308 309 310 310 312 312 311 312 310 310 311 311 311 312 312 312 310 310 311 310 309 310 310 308 307 308 308 305 303 303
319 319 319 315 312 309 308 306 304 303 300 303 303 306 308 308 310 310 309 309 311 312 311 311 312 312 312 311 312 312 310 309 309 309 309 308 308 307 312 310 308 307 306 304 303
314 317 318 315 311 309 306 304 303 302 309 309 305 306 307 307 307 309 309 309 310 311 311 311 310 311 310 311 309 310 312 310 311 309 307 307 310 303 310 311 310 308 305 303 300
309 314 316 316 312 306 304 303 302 307 329 310 305 306 307 304 308 308 308 309 310 309 308 311 310 310 310 310 308 309 309 309 310 310 311 308 305 308 308 309 310 308 306 303 299
306 309 314 313 309 304 300 301 306 318 328 310 306 308 308 308 309 308 309 308 309 310 309 309 308 309 309 308 308 308 310 310 309 309 307 305 307 310 305 309 307 308 307 301 298
302 307 309 312 310 304 301 306 313 324 312 310 308 308 308 309 310 309 310 310 310 310 311 310 309 308 308 309 308 309 308 309 309 310 310 311 309 311 307 311 307 307 306 299 298
300 304 308 310 312 309 307 309 319 317 315 308 309 308 310 309 310 310 310 308 308 309 309 310 312 308 307 309 309 308 307 310 310 314 311 308 311 309 306 307 308 306 302 298 297
298 306 308 309 309 306 310 314 320 318 314 309 309 309 308 309 310 310 309 309 308 308 311 310 312 307 307 307 308 309 310 307 308 301 307 306 304 304 307 307 305 303 299 298 297
298 304 306 308 307 307 312 315 314 315 310 309 316 309 308 307 310 310 309 309 311 307 307 310 313 308 307 307 307 307 305 306 304 304 308 308 308 307 308 307 305 303 299 297 296
299 305 303 304 304 306 311 311 312 313 309 310 312 311 309 308 307 310 309 309 309 309 308 308 311 309 308 308 308 307 308 308 305 308 311 309 308 302 305 306 305 303 301 298 295
297 303 301 302 305 301 307 310 310 313 307 309 309 311 309 307 307 307 309 309 307 307 309 309 310 311 310 306 305 304 307 307 309 308 306 309 308 304 306 305 303 303 303 300 295
295 297 299 301 305 303 302 306 306 309 309 310 310 310 309 308 309 309 308 306 306 307 308 307 303 303 306 306 303 307 305 305 304 304 307 308 309 304 303 306 304 302 301 300 295
293 297 297 297 296 303 306 307 310 305 309 310 312 309 309 309 309 308 309 306 306 307 306 307 305 306 313 312 304 307 306 305 305 306 307 307 307 306 303 304 305 303 302 298 295
293 290 296 301 300 302 304 305 309 308 304 309 310 315 311 312 313 309 307 305 305 307 306 308 315 305 305 306 305 305 306 306 306 307 308 309 307 309 307 304 302 302 302 297 296
295 295 296 296 300 301 302 304 307 309 305 307 310 312 314 315 313 313 307 306 308 306 306 307 311 302 300 303 303 304 303 304 306 308 307 307 307 307 305 303 301 301 302 299 297
293 293 292 291 295 295 302 303 306 309 306 308 309 311 313 315 312 311 309 308 309 308 307 307 305 309 316 302 297 305 302 304 305 304 307 308 308 307 306 305 305 303 301 302 299

GFSSW_925_thetae_279.txt.gz
Theta_e
307 306 307 307 308 309 310 311 310 310 303 302 303 305 308 310 313 312 308 308 308 309 312 314 313 312 312 311 311 307 310 309 311 311 313 312 313 312 310 310 311 310 309 308 308
309 308 307 306 306 307 309 309 310 309 303 301 302 305 308 311 314 310 308 309 309 310 313 313 313 312 310 312 310 307 307 309 312 312 313 312 311 312 312 311 311 310 308 308 307
309 309 309 307 306 306 307 308 309 307 303 301 302 305 309 312 314 311 309 309 311 311 312 313 313 313 313 312 312 309 310 312 314 313 312 312 312 312 312 311 309 310 308 307 306
310 309 308 306 305 306 307 308 309 308 304 302 301 306 310 314 318 311 309 311 312 313 313 312 313 313 313 313 311 313 312 312 313 313 313 313 311 311 310 310 310 307 307 305 305
312 311 310 308 307 306 305 306 307 306 304 301 302 308 314 312 312 310 309 311 313 313 312 312 312 312 313 312 312 312 312 313 313 312 312 312 311 310 309 308 306 306 306 304 304
313 312 311 310 308 307 306 305 305 304 302 301 303 309 315 309 310 309 310 312 314 313 313 312 312 312 312 313 313 312 312 313 312 312 312 313 311 311 308 306 306 306 305 303 303
316 314 313 311 310 308 307 306 306 305 301 301 304 311 311 308 310 309 311 313 313 314 312 313 313 313 312 313 313 312 313 312 312 312 312 310 310 311 309 306 307 306 305 303 302
319 317 314 313 311 310 308 308 307 304 301 302 305 311 307 311 310 309 310 312 313 313 313 313 313 312 314 312 311 313 312 311 312 312 312 309 311 306 306 306 307 306 305 303 302
321 319 317 314 313 311 309 309 306 302 302 303 310 309 305 309 308 309 311 312 313 313 311 312 312 311 312 311 310 311 309 313 312 311 312 311 311 307 307 306 307 306 305 303 302
322 321 319 316 314 312 310 309 303 303 306 308 310 305 306 308 309 310 310 311 312 312 312 311 307 310 310 309 312 312 313 312 310 311 311 311 312 310 308 307 307 306 304 303 303
320 321 321 318 315 312 310 306 304 307 308 304 305 305 307 308 309 310 310 311 311 311 313 312 309 307 309 311 313 312 312 311 310 311 311 311 311 310 308 306 306 305 305 303 302
317 319 320 319 316 312 310 305 304 303 298 303 306 307 308 307 308 309 310 311 311 309 311 310 312 310 308 310 312 311 311 310 308 309 310 308 309 309 308 306 306 306 305 304 301
312 316 318 318 315 312 310 307 304 302 298 301 303 306 308 308 309 308 308 309 310 310 311 311 312 311 311 311 312 311 309 307 309 308 308 306 308 306 308 309 308 305 305 304 301
309 312 316 317 313 311 308 308 304 301 312 309 305 305 307 306 307 308 308 308 309 310 310 310 310 311 310 311 308 310 310 310 310 308 308 306 311 305 306 308 310 308 305 303 301
304 309 309 316 314 308 307 303 302 308 328 309 303 305 306 303 307 308 308 309 308 308 309 310 309 310 310 309 307 308 308 309 310 309 310 308 306 308 306 309 309 308 305 302 299
300 304 309 312 311 307 304 302 309 318 325 309 306 308 307 308 309 307 309 307 308 309 308 308 307 308 308 307 308 307 309 308 308 308 311 305 307 311 303 308 306 308 305 303 298
299 300 306 307 309 303 301 309 314 321 313 310 307 307 306 308 310 309 310 309 309 309 310 310 309 307 307 308 307 308 306 309 311 311 314 310 310 312 307 308 307 306 306 302 297
298 298 304 308 310 304 306 308 318 318 315 307 308 306 307 309 310 309 308 308 307 308 308 310 310 308 306 308 308 307 306 310 312 312 310 308 312 310 305 305 305 306 305 299 297
297 299 307 307 308 304 309 314 318 316 313 309 309 308 308 309 309 309 308 307 306 307 310 309 312 307 307 306 306 307 309 306 307 300 307 307 304 303 303 307 306 304 301 298 296
297 300 305 308 307 305 310 315 313 314 309 309 314 309 308 307 310 309 308 308 309 307 306 309 312 308 307 306 306 307 304 307 304 305 308 307 307 307 307 307 305 304 300 298 296
297 302 303 304 303 307 310 310 311 311 309 311 313 311 309 307 307 309 308 308 308 307 307 307 310 309 307 308 308 307 307 307 305 306 310 309 312 303 305 305 305 303 301 298 295
296 300 300 302 304 301 307 309 309 313 308 311 309 311 309 306 307 307 309 307 306 306 308 308 310 310 310 305 304 305 306 306 309 308 306 308 309 304 303 305 302 303 301 298 295
295 296 297 300 305 303 302 306 306 311 310 311 313 310 309 307 309 308 307 306 306 306 308 307 304 307 312 306 303 307 305 305 303 304 307 309 311 303 303 303 303 301 300 299 295
293 296 297 297 296 302 306 307 310 307 309 311 314 310 309 309 307 308 308 306 306 306 307 306 304 308 318 312 305 307 306 303 305 306 307 306 307 306 305 303 304 302 301 299 297
293 292 296 300 301 301 303 304 308 310 305 308 311 313 313 311 309 309 307 305 306 307 306 307 306 304 306 305 304 306 305 305 305 308 308 310 308 310 307 303 301 301 301 299 297
291 293 292 292 296 294 302 303 306 308 307 308 310 312 315 315 310 309 306 306 308 306 306 305 305 302 303 304 304 304 303 304 306 306 305 306 307 307 304 304 302 300 300 301 299
292 292 292 289 292 293 297 298 302 302 307 307 308 311 314 315 313 310 308 307 307 307 306 307 302 308 319 302 299 309 303 305 305 304 307 308 309 308 307 305 304 303 299 301 300

GFSSW_925_thetae_285.txt.gz
Theta_e
310 309 309 308 308 308 308 309 309 310 310 310 305 302 305 308 312 311 308 308 309 309 312 313 312 311 310 309 308 305 312 312 311 309 311 310 311 310 309 309 309 309 308 308 307
311 311 310 309 309 308 308 309 309 309 310 310 304 302 306 309 312 311 308 308 309 310 312 312 311 310 309 310 308 309 311 311 308 307 311 311 310 311 311 310 310 309 307 306 306
313 312 311 310 309 307 308 309 309 309 310 308 304 302 308 310 312 310 309 309 310 311 312 312 312 311 312 310 309 307 308 307 311 311 311 311 311 310 311 311 309 310 308 305 305
316 314 312 312 311 310 308 307 307 307 307 306 302 303 311 314 312 311 308 310 311 312 312 311 311 311 311 312 310 310 309 310 312 312 311 312 310 311 309 310 308 306 306 304 305
319 317 315 313 312 312 311 309 307 306 305 304 303 305 313 310 308 311 309 310 312 312 312 310 311 310 312 310 310 311 310 311 311 311 310 310 311 310 308 307 306 306 305 305 304
320 319 318 317 314 313 312 311 309 307 306 303 303 307 313 307 310 309 310 312 313 312 312 311 310 309 310 311 310 310 311 311 310 311 311 312 311 310 308 305 305 306 305 304 304
319 320 320 319 317 315 314 313 312 310 308 303 303 309 309 305 310 309 311 312 313 312 311 312 312 310 310 312 311 311 312 309 310 311 311 309 310 311 308 306 306 306 305 304 303
318 320 319 320 319 317 315 314 313 311 309 302 302 308 303 309 309 309 311 312 313 312 312 312 312 310 312 310 308 311 308 311 310 311 311 309 314 310 304 307 308 306 304 304 304
315 317 320 320 320 319 317 315 314 312 304 303 305 307 301 309 309 309 310 311 312 311 311 310 309 310 309 308 309 306 312 309 309 311 311 311 313 310 305 306 307 305 305 305 304
310 312 315 318 319 319 318 316 314 306 306 307 308 302 302 306 308 309 310 311 311 310 309 308 306 308 308 308 319 312 312 312 311 310 311 312 312 311 309 306 307 306 305 305 304
306 310 312 315 318 318 317 315 303 304 307 302 301 300 305 307 308 308 310 310 309 308 308 309 307 309 308 307 310 312 313 313 309 309 310 310 310 308 307 306 307 306 305 305 304
303 305 309 312 317 317 316 311 304 302 302 300 305 305 307 307 307 308 309 308 308 307 309 309 309 308 307 308 311 311 311 310 308 307 309 307 308 308 305 304 304 305 304 304 303
301 302 305 311 316 315 314 313 306 301 299 300 304 306 307 307 307 307 307 307 306 310 310 310 311 308 310 310 311 310 310 308 311 307 306 305 310 309 307 308 307 305 303 303 304
301 301 303 309 313 313 312 316 315 302 318 315 303 304 307 307 308 307 307 308 308 307 309 310 308 310 310 311 310 313 308 308 309 308 310 305 315 309 306 305 307 308 304 303 302
298 299 300 303 308 309 309 310 308 308 329 309 303 304 305 306 307 308 307 307 308 308 308 310 309 310 311 311 308 311 307 308 308 309 309 307 308 311 304 307 308 308 305 302 301
296 297 298 302 306 309 304 304 309 319 328 309 305 307 306 307 308 307 308 306 304 307 306 307 306 307 308 306 306 306 308 307 306 308 310 306 308 315 306 306 305 307 305 302 299
295 295 296 297 306 307 303 309 313 321 313 310 306 306 306 308 309 309 310 309 308 307 309 308 308 306 306 307 307 306 307 313 312 311 316 308 309 313 308 304 304 305 305 302 298
294 294 294 297 305 305 305 309 317 315 314 306 306 305 306 307 308 308 309 309 307 306 308 308 307 306 305 307 308 306 307 313 315 313 309 308 312 313 306 305 304 304 304 302 298
293 292 296 299 300 304 307 310 317 315 311 308 306 307 306 307 307 308 308 308 307 306 310 308 308 305 306 305 306 307 308 305 307 298 307 308 307 305 303 303 306 304 303 302 299
292 294 296 301 303 303 306 312 313 312 307 307 317 311 308 307 309 307 306 306 307 306 305 308 312 306 306 305 305 306 303 308 305 309 310 309 307 311 307 306 301 304 303 302 299
292 294 298 301 303 303 306 309 308 309 310 310 314 311 309 308 307 308 308 307 305 305 305 305 309 308 306 307 307 305 306 305 305 306 310 310 313 304 306 305 304 302 302 301 299
290 285 295 299 303 301 305 305 308 310 310 311 310 312 310 308 307 308 308 307 305 305 307 306 307 307 307 305 303 304 305 304 309 308 305 306 310 305 303 303 304 303 302 300 298
288 283 293 299 303 303 302 304 307 311 312 313 313 311 309 308 312 308 307 306 304 306 308 306 302 301 306 305 302 305 304 304 303 304 306 310 311 304 302 303 302 302 300 300 298
282 288 287 296 296 299 303 306 307 308 310 312 314 311 309 311 309 309 307 306 305 305 307 307 306 309 313 313 305 306 305 304 305 305 308 306 309 308 306 305 304 302 300 299 298
281 282 290 287 288 293 297 299 303 302 303 306 312 312 311 312 311 311 308 306 306 307 306 306 304 305 307 305 306 307 306 305 306 308 309 310 307 310 310 306 304 300 300 300 299
281 289 285 288 292 289 296 295 297 297 301 302 297 297 306 314 312 312 310 309 310 306 306 306 309 303 304 304 304 303 305 305 306 307 305 306 307 307 305 303 301 301 300 300 300
289 290 289 286 288 290 291 293 295 295 297 296 295 296 306 301 300 303 306 310 311 309 308 307 305 310 307 304 302 311 308 304 304 302 307 308 309 305 307 303 302 302 301 300 299

GFSSW_925_thetae_291.txt.gz
Theta_e
313 313 312 312 311 310 309 310 310 310 311 311 310 303 302 306 309 314 313 312 312 309 310 315 315 315 316 318 317 317 319 322 322 321 320 318 318 318 317 318 317 318 318 317 316
317 316 314 313 312 312 311 309 309 310 310 310 308 303 303 308 316 314 312 308 308 309 314 314 315 315 317 318 317 318 320 321 319 318 317 317 317 318 318 318 318 318 317 314 314
318 318 317 316 314 313 313 312 310 308 307 308 306 302 305 311 317 314 312 308 309 310 314 314 315 316 316 317 317 317 319 318 316 316 317 317 317 317 317 318 318 319 319 316 314
319 319 319 318 318 316 314 313 312 311 309 307 305 302 307 317 316 313 309 309 310 314 314 314 315 316 316 316 316 315 315 315 315 316 317 317 317 317 317 318 317 317 317 317 315
318 319 319 319 319 318 317 315 314 313 311 309 305 302 314 316 313 311 309 309 312 314 314 315 316 316 317 317 316 315 316 315 316 316 316 316 316 317 317 317 317 316 315 315 315
315 316 317 318 319 319 319 318 316 314 313 312 306 302 315 313 310 311 310 311 313 313 314 315 316 316 316 316 316 317 317 317 317 317 316 316 317 315 317 315 315 316 315 314 314
311 313 315 318 318 319 319 319 318 316 314 314 305 309 311 310 311 310 312 313 314 314 315 315 314 315 316 317 317 317 317 319 318 317 316 315 318 317 317 316 315 315 315 314 315
307 310 312 314 317 318 319 318 318 317 316 312 301 309 308 307 310 310 313 314 314 313 315 315 315 316 317 316 316 317 317 322 318 316 317 315 324 322 317 315 316 316 315 315 314
304 306 308 311 314 317 318 318 318 317 314 305 307 308 306 309 310 311 312 314 314 314 313 313 316 317 316 316 320 319 323 325 323 316 317 317 323 322 316 315 316 317 316 315 315
303 303 304 308 311 314 317 318 317 312 309 308 308 307 305 307 311 311 311 313 314 315 315 316 316 316 317 319 331 331 325 325 323 319 317 319 320 320 320 319 318 318 317 316 315
302 303 303 304 307 311 315 318 317 312 309 316 309 304 305 309 310 311 312 313 314 315 317 315 316 323 320 319 320 320 321 323 323 317 314 319 320 320 320 320 320 319 317 317 315
299 299 300 302 305 310 314 316 315 304 317 312 308 305 308 309 311 311 312 313 314 317 315 315 317 318 316 317 317 318 320 323 322 315 313 319 319 319 320 317 316 317 316 315 316
297 298 298 300 305 313 313 314 310 303 309 315 309 309 308 309 310 312 312 313 314 316 316 319 319 315 314 315 316 318 321 326 321 317 317 315 325 328 318 314 314 314 314 313 313
296 296 297 298 307 306 311 310 312 314 320 319 311 310 309 309 309 311 311 312 311 315 315 316 316 314 314 316 316 320 318 317 316 318 325 316 337 328 324 319 315 313 314 314 312
295 295 296 296 300 306 308 308 310 313 325 322 309 306 309 311 311 310 310 310 313 312 314 316 314 315 317 318 317 319 313 315 315 317 318 321 326 334 324 320 316 315 314 313 312
295 295 295 297 298 302 306 307 308 316 324 316 310 311 310 310 311 310 310 309 311 312 311 314 310 313 315 311 313 313 314 314 315 317 328 326 324 337 335 320 315 315 313 312 311
295 295 294 293 301 304 305 307 313 320 317 316 313 311 313 311 312 312 311 310 312 314 315 313 313 311 310 313 312 313 316 332 335 327 328 314 317 326 322 313 312 315 313 312 311
294 294 293 292 297 297 303 309 314 319 321 311 312 312 314 311 312 313 313 313 310 312 316 317 318 312 311 314 315 314 316 322 331 328 322 313 319 324 315 314 310 313 313 311 310
294 293 294 297 300 299 307 311 318 317 316 313 312 315 314 312 312 313 315 315 314 311 315 316 316 309 310 309 312 314 314 313 316 312 318 317 318 318 311 312 311 311 313 312 310
293 293 295 298 299 301 306 311 310 314 311 311 318 316 317 313 313 313 315 314 315 313 310 313 316 310 309 308 309 311 311 314 315 329 327 321 320 322 315 313 312 312 312 313 311
293 294 298 295 301 303 305 309 309 310 311 311 315 318 319 314 313 314 316 314 313 314 311 312 315 313 309 310 312 310 311 312 315 317 323 324 322 316 315 312 313 313 313 312 313
293 294 294 297 301 303 305 307 307 310 311 312 311 312 316 316 314 315 316 314 310 311 312 311 315 319 314 310 309 311 311 312 316 319 315 314 320 312 311 309 309 311 313 313 312
294 293 294 298 303 304 302 305 306 308 311 312 311 311 310 311 315 315 315 310 309 310 311 311 318 322 317 311 308 311 311 312 314 311 317 322 321 311 309 308 309 311 311 312 311
294 295 296 298 296 298 304 305 305 305 306 303 307 308 311 311 309 313 314 310 308 309 308 310 314 320 324 319 314 311 312 311 313 317 317 317 320 315 312 311 310 310 311 311 310
294 292 291 296 298 298 300 299 301 301 299 299 304 301 303 308 312 312 311 309 308 307 310 310 317 312 312 313 311 312 312 312 312 314 318 320 317 317 317 313 312 311 311 310 310
294 294 293 294 294 297 296 297 297 297 298 299 298 300 304 304 302 303 303 311 312 309 311 310 316 309 311 311 311 312 312 312 313 313 314 315 315 313 313 314 312 312 311 310 309
291 291 293 292 294 295 293 294 294 295 296 296 297 299 302 299 297 298 300 301 303 308 310 312 313 314 321 309 310 316 312 313 313 312 313 315 314 314 313 313 313 313 313 311 309